Ardmore Downtown, OK

4:00 PM CDT on September 20, 2017 (GMT -0500)
Ardmore Downtown

Weather History for K1F0 - March, 2013

Change the Weather History Date:

Monday, March 4, 2013

  Actual Average (KADM) Record (KADM)
Temperature  
Mean Temperature 62 °F -  
Max Temperature 78 °F 57 °F 78 °F (1997)
Min Temperature 46 °F 38 °F 15 °F (2002)
Degree Days  
Heating Degree Days 3    
Growing Degree Days 12 (Base 50)    
Moisture  
Dew Point 36 °F    
Average Humidity 39    
Maximum Humidity 71    
Minimum Humidity 20    
Precipitation  
Precipitation 0.00 in - - ()
Sea Level Pressure  
Sea Level Pressure 29.66 in    
Wind  
Wind Speed 11 mph (West)    
Max Wind Speed 23 mph    
Max Gust Speed 37 mph    
Visibility 10 miles    
Events Rain    
Averages and records for this station are not official NWS values.
T = Trace of Precipitation, MM = Missing Value Source: NWS Daily Summary

Daily Weather History Graph

Daily Weather History Graph

Search for Another Location

Airport or City:

Trip Planner

Search our weather history database for the weather conditions in past years. The results will help you decide how hot, cold, wet, or windy it might be!

Date:

Astronomy

Mar. 04, 2013 Rise Set
Actual Time 6:53 AM CST 6:27 PM CST
Civil Twilight 6:28 AM CST 6:52 PM CST
Nautical Twilight 5:59 AM CST 7:21 PM CST
Astronomical Twilight 5:30 AM CST 7:50 PM CST
Moon 12:53 AM CST (3/4) 11:21 AM CST (3/4)
Length of Visible Light 12h 24m
Length of Day
11h 34m
Waning Gibbous, 52% of the Moon is Illuminated
Mar 4
Waning Gibbous
Mar 4
Last Quarter
Mar 11
New
Mar 19
First Quarter
Mar 27
Full

Hourly Weather History & Observations

Time (CST) Temp. Windchill Dew Point Humidity Pressure Visibility Wind Dir Wind Speed Gust Speed Precip Events Conditions
12:15 AM 60.8 °F - 32.0 °F 34% 29.68 in 10.0 mi South 11.5 mph 21.9 mph N/A   Clear
12:35 AM 60.8 °F - 32.0 °F 34% 29.68 in 10.0 mi SSW 10.4 mph 19.6 mph N/A   Clear
12:55 AM 60.8 °F - 32.0 °F 34% 29.68 in 10.0 mi SSW 13.8 mph 32.2 mph N/A   Clear
1:15 AM 59.0 °F - 33.8 °F 39% 29.68 in 10.0 mi SSW 11.5 mph 24.2 mph N/A   Clear
1:35 AM 59.0 °F - 33.8 °F 39% 29.68 in 10.0 mi SSW 12.7 mph 23.0 mph N/A   Clear
1:55 AM 59.0 °F - 35.6 °F 42% 29.67 in 10.0 mi SSW 13.8 mph 24.2 mph N/A   Clear
2:15 AM 59.0 °F - 35.6 °F 42% 29.67 in 10.0 mi SSW 11.5 mph 23.0 mph N/A   Clear
2:35 AM 59.0 °F - 35.6 °F 42% 29.66 in 10.0 mi SSW 15.0 mph 21.9 mph N/A   Clear
2:55 AM 59.0 °F - 37.4 °F 45% 29.65 in 10.0 mi SSW 16.1 mph 24.2 mph N/A   Clear
3:15 AM 57.2 °F - 37.4 °F 48% 29.65 in 10.0 mi SSW 12.7 mph 21.9 mph N/A   Clear
3:35 AM 57.2 °F - 37.4 °F 48% 29.65 in 10.0 mi SSW 13.8 mph 23.0 mph N/A   Clear
3:55 AM 55.4 °F - 37.4 °F 51% 29.64 in 10.0 mi SSW 10.4 mph 19.6 mph N/A   Clear
4:15 AM 55.4 °F - 37.4 °F 51% 29.64 in 10.0 mi SSW 11.5 mph 18.4 mph N/A   Clear
4:35 AM 55.4 °F - 37.4 °F 51% 29.63 in 10.0 mi SSW 11.5 mph 17.3 mph N/A   Clear
5:15 AM 53.6 °F - 37.4 °F 54% 29.63 in 10.0 mi SSW 8.1 mph - N/A   Clear
6:15 AM 53.6 °F - 37.4 °F 54% 29.62 in 10.0 mi SSW 9.2 mph 18.4 mph N/A   Clear
6:35 AM 53.6 °F - 37.4 °F 54% 29.62 in 10.0 mi SSW 11.5 mph 17.3 mph N/A   Clear
6:55 AM 53.6 °F - 37.4 °F 54% 29.61 in 10.0 mi SSW 10.4 mph 18.4 mph N/A   Clear
7:15 AM 53.6 °F - 37.4 °F 54% 29.61 in 10.0 mi SSW 12.7 mph 17.3 mph N/A   Clear
7:35 AM 55.4 °F - 37.4 °F 51% 29.61 in 10.0 mi SSW 10.4 mph 17.3 mph N/A   Clear
7:55 AM 55.4 °F - 37.4 °F 51% 29.61 in 10.0 mi SSW 12.7 mph 19.6 mph N/A   Clear
8:15 AM 55.4 °F - 35.6 °F 47% 29.61 in 10.0 mi SW 10.4 mph - N/A   Clear
8:35 AM 59.0 °F - 35.6 °F 42% 29.61 in 10.0 mi SSW 11.5 mph 16.1 mph N/A   Clear
8:55 AM 59.0 °F - 35.6 °F 42% 29.61 in 10.0 mi SW 8.1 mph 17.3 mph N/A   Clear
9:15 AM 60.8 °F - 35.6 °F 39% 29.62 in 10.0 mi SW 9.2 mph - N/A   Clear
9:35 AM 62.6 °F - 33.8 °F 34% 29.61 in 10.0 mi SW 9.2 mph - N/A   Clear
9:55 AM 66.2 °F - 32.0 °F 28% 29.61 in 10.0 mi SW 10.4 mph 18.4 mph N/A   Clear
10:15 AM 69.8 °F - 30.2 °F 23% 29.60 in 10.0 mi West 9.2 mph - N/A   Clear
10:55 AM 71.6 °F - 30.2 °F 22% 29.61 in 10.0 mi West 11.5 mph 17.3 mph N/A   Clear
11:15 AM 73.4 °F - 30.2 °F 20% 29.62 in 10.0 mi WNW 11.5 mph 18.4 mph N/A   Clear
11:35 AM 71.6 °F - 32.0 °F 23% 29.62 in 10.0 mi West 11.5 mph 18.4 mph N/A   Clear
11:55 AM 71.6 °F - 32.0 °F 23% 29.61 in 10.0 mi West 11.5 mph 19.6 mph N/A   Clear
12:15 PM 73.4 °F - 32.0 °F 22% 29.60 in 10.0 mi West 10.4 mph 17.3 mph N/A   Clear
12:55 PM 73.4 °F - 35.6 °F 25% 29.60 in 10.0 mi West 11.5 mph 17.3 mph N/A   Clear
1:15 PM 77.0 °F - 35.6 °F 22% 29.60 in 10.0 mi WNW 11.5 mph 16.1 mph N/A   Clear
1:35 PM 75.2 °F - 33.8 °F 22% 29.60 in 10.0 mi WNW 11.5 mph 18.4 mph N/A   Clear
1:55 PM 77.0 °F - 35.6 °F 22% 29.60 in 10.0 mi West 9.2 mph - N/A   Clear
2:15 PM 77.0 °F - 35.6 °F 22% 29.60 in 10.0 mi WNW 12.7 mph 17.3 mph N/A   Clear
2:35 PM 77.0 °F - 35.6 °F 22% 29.60 in 10.0 mi West 9.2 mph 17.3 mph N/A   Clear
2:55 PM 77.0 °F - 35.6 °F 22% 29.60 in 10.0 mi West 10.4 mph - N/A   Clear
3:15 PM 77.0 °F - 35.6 °F 22% 29.60 in 10.0 mi WNW 6.9 mph - N/A   Clear
3:35 PM 78.8 °F - 33.8 °F 20% 29.60 in 10.0 mi WNW 5.8 mph 20.7 mph N/A   Clear
3:55 PM 78.8 °F - 33.8 °F 20% 29.60 in 10.0 mi West 6.9 mph - N/A   Clear
4:15 PM 78.8 °F - 35.6 °F 21% 29.60 in 10.0 mi NNW 4.6 mph - N/A   Clear
4:55 PM 77.0 °F - 35.6 °F 22% 29.60 in 10.0 mi NNE 8.1 mph - N/A   Clear
5:15 PM 75.2 °F - 35.6 °F 24% 29.61 in 10.0 mi NNE 6.9 mph - N/A   Clear
5:35 PM 73.4 °F - 35.6 °F 25% 29.62 in 10.0 mi NNE 5.8 mph - N/A   Clear
5:55 PM 73.4 °F - 35.6 °F 25% 29.62 in 10.0 mi North 4.6 mph - N/A   Clear
6:15 PM 71.6 °F - 35.6 °F 27% 29.63 in 10.0 mi NNE 8.1 mph - N/A   Clear
6:55 PM 68.0 °F - 37.4 °F 33% 29.66 in 10.0 mi NNE 8.1 mph - N/A   Clear
7:15 PM 66.2 °F - 37.4 °F 35% 29.67 in 10.0 mi North 5.8 mph - N/A   Clear
7:35 PM 64.4 °F - 37.4 °F 37% 29.67 in 10.0 mi NNE 9.2 mph - N/A   Clear
7:55 PM 64.4 °F - 37.4 °F 37% 29.68 in 10.0 mi NNE 8.1 mph - N/A   Clear
8:15 PM 64.4 °F - 37.4 °F 37% 29.68 in 10.0 mi NNE 9.2 mph - N/A   Clear
8:35 PM 62.6 °F - 41.0 °F 45% 29.70 in 10.0 mi NNE 9.2 mph - N/A   Clear
8:55 PM 60.8 °F - 41.0 °F 48% 29.72 in 10.0 mi NNE 11.5 mph 20.7 mph N/A   Clear
9:35 PM 57.2 °F - 41.0 °F 55% 29.79 in 10.0 mi North 15.0 mph 21.9 mph N/A   Mostly Cloudy
9:55 PM 53.6 °F - 41.0 °F 62% 29.85 in 10.0 mi North 13.8 mph 19.6 mph N/A   Overcast
10:15 PM 51.8 °F - 41.0 °F 67% 29.88 in 10.0 mi North 13.8 mph 20.7 mph N/A   Overcast
10:35 PM 50.0 °F - 39.2 °F 66% 29.85 in 10.0 mi North 12.7 mph 26.5 mph N/A   Overcast
10:55 PM 48.2 °F - 37.4 °F 66% 29.84 in 10.0 mi NNE 23.0 mph 36.8 mph N/A   Overcast
11:15 PM 46.4 °F 40.7 °F 37.4 °F 71% 29.89 in 10.0 mi North 12.7 mph 26.5 mph N/A   Overcast
11:35 PM 46.4 °F 40.7 °F 37.4 °F 71% 29.89 in 10.0 mi North 12.7 mph 28.8 mph N/A   Overcast
11:55 PM 46.4 °F 40.4 °F 37.4 °F 71% 29.91 in 10.0 mi North 13.8 mph 21.9 mph N/A Rain Light Rain